Location: Caltech
(34.1382°N, 118.1253°W)
Time: 17:14:01
(UTC-07:00)

Daily predictions for brighter satellites

Satellite Brightness Start Highest point End
(mag) Time Altitude Azimuth Time Altitude Azimuth Time Altitude Azimuth
Cosmos 2026 Rocket 4.2 20:25:39 10° S 20:31:44 81° W 20:37:56 10° N
Cosmos 968 Rocket 3.8 20:32:03 10° SSW 20:37:11 73° WNW 20:42:25 10° NNE
Cosmos 2221 4.1 20:38:31 10° NNW 20:42:26 36° W 20:46:23 10° SSW
Cosmos 1743 Rocket 3.6 20:39:52 10° S 20:44:20 90° E 20:48:48 10° N
NOSS 3-1 (A) 4.4 20:40:41 10° SSE 20:44:58 22° ESE 20:49:29 10° ENE
Cosmos 1500 Rocket 3.5 20:45:38 10° S 20:49:56 68° E 20:54:20 10° NNE
Meteor 1-21 Rocket 4.2 20:44:51 10° S 20:50:23 78° E 20:55:55 10° N
Cosmos 1437 4.1 20:48:04 10° SE 20:50:39 22° E 20:53:15 10° NE
Cosmos 2228 Rocket 3.3 20:51:09 10° N 20:55:38 76° W 21:00:09 10° S
S3M 4.0 20:56:41 10° N 21:02:49 88° W 21:08:58 10° S
Envisat 3.5 20:59:41 12° SE 21:04:08 42° ENE 21:08:54 10° N
ERS-1 Rocket 3.0 20:59:57 10° SSE 21:04:57 76° ENE 21:10:00 10° N
Delta 2 Rocket 3.1 21:01:29 10° W 21:05:14 74° N 21:08:40 10° ENE
Cosmos 1441 Rocket 3.8 21:01:34 10° SSW 21:05:17 57° W 21:09:00 10° N
ATLAS 2AS CENTAUR R/B 4.3 21:05:37 13° ESE 21:07:31 14° ESE 21:11:07 10° ENE
Cosmos 2219 3.4 21:02:37 10° S 21:08:09 51° ESE 21:13:42 10° NNE
deb Chang Zheng 4 3.5 21:06:18 10° NNE 21:10:40 84° ESE 21:15:00 10° SSW
Cosmos 2151 3.0 21:11:49 10° S 21:15:55 56° E 21:20:02 10° NNE
USA 186 4.0 21:17:26 10° WSW 21:18:29 12° W 21:19:34 10° WNW
Cosmos 2322 3.9 21:15:21 10° NNW 21:21:00 58° ENE 21:25:00 19° SE
Cosmos 2322 Rocket 3.2 21:16:04 10° NW 21:21:21 43° WSW 21:26:37 10° S
Cosmos 1515 Rocket 4.0 21:17:47 10° NNW 21:22:10 63° W 21:26:30 10° S
Cosmos 2298 Rocket 4.5 21:20:10 11° S 21:24:58 40° E 21:29:54 10° NNE
CZ-4 SHROUD 4.0 21:24:11 27° ESE 21:25:16 36° ENE 21:28:11 10° N
Sich 1 4.2 21:25:43 22° ESE 21:27:07 26° E 21:30:46 10° NNE
Aureole 3 4.4 21:21:55 10° S 21:28:49 70° E 21:34:23 10° NNE
Cosmos 2360 Rocket 2.2 21:24:41 10° NNW 21:30:21 73° ENE 21:34:08 21° SSE
Cosmos 2058 3.1 21:28:15 21° SSE 21:30:39 48° E 21:34:36 10° NNE
Cosmos 1633 Rocket 4.1 21:29:42 23° ESE 21:30:54 26° E 21:34:34 10° NNE
NOSS 3-1 (C) 3.3 21:25:25 10° SSW 21:31:08 73° ESE 21:37:23 10° NE
Cosmos 1908 3.4 21:27:36 10° N 21:31:31 74° W 21:34:30 17° S
Nimbus 7 Rocket 4.4 21:26:17 10° NNE 21:32:10 84° WNW 21:38:02 10° SSW
SL-16 R/B 3.5 21:27:46 10° NW 21:32:56 37° WSW 21:38:04 10° S
Cosmos 883 Rocket 4.4 21:27:17 10° N 21:33:31 80° E 21:38:34 16° S
DELTA 2 R/B (1) 3.6 21:29:34 10° WNW 21:35:08 78° NNE 21:38:52 21° ESE
Cosmos 1674 3.7 21:31:49 10° SSW 21:35:30 48° W 21:39:15 10° N
OAO 2 Rocket 3.4 21:32:14 10° WSW 21:37:30 63° SSE 21:42:20 12° E
Cosmos 405 3.3 21:34:08 10° NNW 21:37:44 66° W 21:39:59 21° S
Cosmos 1151 Rocket 3.2 21:34:26 10° N 21:38:44 73° W 21:41:54 18° S
OTV 4 2.0 21:39:49 10° SW 21:41:17 23° SSW 21:41:17 23° SSW
Tiangong 1 2.1 21:42:54 10° W 21:45:54 45° NNW 21:48:53 10° NE
Cosmos 1805 Rocket 3.5 21:43:27 21° S 21:46:20 75° E 21:50:47 10° N
YAOGAN 6 2.8 21:47:15 41° ESE 21:48:06 51° ENE 21:51:38 10° N
H-2A R/B 3.6 21:48:41 18° E 21:50:21 21° ENE 21:54:20 10° NNE
CZ-4 R/B 4.2 21:46:11 10° NNE 21:50:54 46° E 21:52:31 33° SSE
Cosmos 1300 2.9 21:48:30 10° N 21:52:15 50° E 21:52:56 44° ESE
CZ-4B R/B 3.5 21:48:12 10° NNE 21:53:27 73° ESE 21:56:59 21° S
Cosmos 2227 Rocket 3.0 21:53:14 29° ESE 21:53:54 30° ESE 21:58:44 10° NE
Meteor 1-11 4.2 21:50:02 18° S 21:54:27 76° E 22:00:11 10° NNE
Cosmos 1680 Rocket 3.7 21:51:47 10° NNW 21:57:01 71° WSW 21:59:53 27° S
Hubble Space Telescope 3.0 21:55:26 10° SSW 21:56:00 13° SSW 21:56:00 13° SSW
Cosmos 1939 Rocket 4.4 21:57:25 14° SSW 22:00:14 30° W 22:03:43 10° NW
SPOT 1/Viking Rocket 3.5 22:00:26 36° SE 22:02:28 67° ENE 22:07:34 10° N
H-2A R/B 3.7 21:59:24 13° SSW 22:02:56 32° W 22:06:59 10° NW
Cosmos 2315 Rocket 4.0 21:56:48 10° N 22:03:01 84° W 22:06:50 25° S
PSLV R/B 4.1 22:05:24 37° SW 22:05:56 41° W 22:08:51 10° NNW
Cosmos 1898 Rocket 3.4 22:02:06 18° SSW 22:06:02 88° ESE 22:11:15 10° NNE
Cosmos 1666 Rocket 3.5 22:07:02 34° SSW 22:08:55 83° W 22:13:21 10° N
Cosmos 220 Rocket 4.0 22:08:18 52° SE 22:08:56 59° ESE 22:13:18 10° NNE
Cosmos 1707 Rocket 3.4 22:04:35 10° N 22:08:58 86° E 22:10:06 49° S
Cosmos 858 Rocket 4.4 22:07:51 22° SSW 22:11:20 89° ESE 22:16:34 10° NNE
Cosmos 2333 Rocket 3.4 22:06:46 10° N 22:11:39 28° ENE 22:13:18 24° E
Cosmos 2150 Rocket 4.2 22:08:56 14° SSW 22:13:40 78° WNW 22:19:09 10° NNE
SPOT 5 3.6 22:11:50 24° SSW 22:14:09 44° W 22:18:41 10° NNW
Cosmos 1455 4.1 22:11:55 10° NNE 22:13:51 18° ENE 22:13:51 18° ENE
Cosmos 2297 Rocket 2.9 22:21:13 35° E 22:21:13 35° E 22:25:57 10° NE
Meteor 2-11 Rocket 4.4 22:16:04 10° N 22:22:13 83° W 22:24:52 36° S
Cosmos 1470 Rocket 3.8 22:22:50 49° ENE 22:22:50 49° ENE 22:26:42 10° NNE
COSMOS 2428 2.6 22:17:52 10° NNW 22:23:35 84° WSW 22:25:20 46° SSE
Cosmos 1933 Rocket 3.9 22:23:55 49° E 22:23:55 49° E 22:28:02 10° NNE
ARGOS 3.1 22:22:33 46° SSE 22:24:16 90° W 22:29:41 10° NNW
Nadezhda 1 Rocket 4.3 22:19:48 10° N 22:25:40 47° E 22:26:55 41° ESE
CZ-3A R/B 3.6 22:08:01 10° W 22:27:08 41° SSW 22:28:12 38° S
Cosmos 2219 Rocket 2.4 22:25:49 10° N 22:31:18 54° ENE 22:32:19 47° ESE
SL-08 R/B 4.4 22:29:27 35° S 22:32:18 86° W 22:38:36 10° N
Cosmos 1726 2.6 22:29:01 10° NNW 22:32:44 56° W 22:32:47 56° W
Cosmos 1745 Rocket 3.9 22:31:50 42° S 22:34:09 84° E 22:40:22 10° N
CZ-4C R/B 3.8 22:35:43 47° N 22:35:43 47° N 22:38:20 10° N
NOSS 3-1 (A) 4.3 22:29:40 10° SW 22:35:17 48° NW 22:41:28 10° NNE
ERBS 4.2 22:38:38 26° NNE 22:38:38 26° NNE 22:40:19 10° NNE
DMSP B5D2-2 3.9 22:36:52 10° NNE 22:42:04 67° ESE 22:42:19 66° ESE
Cosmos 1709 Rocket 4.5 22:42:19 40° E 22:42:31 40° E 22:48:08 10° NNE
Landsat 7 3.6 22:44:50 81° SSE 22:45:04 90° SSE 22:49:51 10° NNW
Cosmos 292 Rocket 3.6 22:42:59 10° NNW 22:47:45 83° WSW 22:47:50 83° SW
NOSS 0 Rocket 3.9 22:42:08 10° NNW 22:48:16 67° ENE 22:49:19 57° ESE
USA 32 4.2 22:44:01 10° N 22:49:13 65° W 22:50:14 53° SW
Cosmos 1980 3.9 22:44:57 10° NNW 22:50:30 56° ENE 22:51:01 54° E
Cosmos 1271 Rocket 3.5 22:47:17 10° NNW 22:50:33 50° WNW 22:50:33 50° WNW
Cosmos 1703 4.3 22:52:05 40° W 22:52:10 40° W 22:55:52 10° N
Spot 2 4.3 22:49:23 10° NNE 22:54:11 73° ENE 22:54:11 73° ENE
Meteor 1-4 Rocket 3.9 22:51:19 10° NNW 22:54:14 38° WNW 22:54:14 38° WNW
ATLAS 2AS CENTAUR R/B 2.8 22:52:53 28° SSW 22:57:15 88° ESE 23:05:16 10° NNE
Cosmos 1386 Rocket 4.3 22:57:19 59° SSW 22:58:33 85° W 23:04:34 10° N
Terra 1.8 23:01:11 80° NNW 23:01:11 80° NNW 23:05:42 10° NNW
Cosmos 2237 Rocket 2.2 22:57:24 10° NNW 23:03:06 66° ENE 23:03:21 65° E
Cosmos 2082 3.9 23:01:36 43° SW 23:03:25 67° WNW 23:09:08 10° NNE
Meteor 2-10 4.4 22:58:37 10° NNW 23:04:17 63° W 23:05:09 56° SW
CARTOSAT-1 4.0 23:05:23 60° NW 23:05:23 60° NW 23:09:02 10° NNW
Spot 4 3.9 23:05:42 71° NNE 23:05:42 71° NNE 23:10:09 10° N
Lacrosse 4 Rocket 3.5 23:03:12 10° N 23:06:05 20° NE 23:06:05 20° NE
Cosmos 1862 Rocket 4.1 23:03:24 10° N 23:06:52 56° NNW 23:06:52 56° NNW
Cosmos 1626 3.7 23:10:26 35° NNW 23:10:26 35° NNW 23:12:57 10° N
Cosmos 2181 Rocket 4.3 23:07:31 10° N 23:13:45 52° E 23:13:59 52° E
ATLAS 3B R/B 3.4 23:10:33 10° NNW 23:17:02 40° NE 23:18:29 36° E
OAO 2 Rocket 3.8 23:17:01 10° W 23:21:19 58° W 23:21:19 58° W
Tiangong 1 4.4 23:20:47 10° NW 23:21:28 13° NW 23:21:28 13° NW
FALCON 9 R/B 3.2 23:06:41 10° W 23:27:50 90° N 23:30:02 50° E
H-2A R/B 2.9 23:29:19 42° W 23:29:24 42° W 23:34:31 10° NNW
Cosmos 1269 Rocket 4.4 23:30:24 10° NNW 23:34:54 59° NNE 23:34:54 59° NNE
COSMOS 2455 3.1 23:30:36 10° NNW 23:36:29 57° ENE 23:36:29 57° ENE
Cosmos 2227 Rocket 3.7 23:34:58 21° WSW 23:37:49 32° WNW 23:42:50 10° N
SeaSat 1 3.4 23:49:07 41° NNE 23:49:07 41° NNE 23:52:59 10° N
Cosmos 1125 Rocket 4.4 23:54:00 44° WNW 23:54:00 44° WNW 23:59:03 10° N
